Onweer radar Meer informatie blitzortung!


Regen radar Meer informatie rain snow radar


Bezoek onze andere website:

Template documentation
and downloads

And another site



15 daagse weersverwachting Krefeld (DE)

  • Overzicht
  • Per uur
  • 15 dagen
  • Extra
  • Vergelijk
  • Kaarten
  • Dagkaart
  • Meer »
  • Info
  • Statistieken
  • Directe link
    Temp 6h Neerslag Wind  
 06:01     21:20    Daglengte: 15:19 Vandaag
02:00
15°
 
3
08:00
15°
 
4
14:00
20°
 
4
20:00
18°
0.7 mm
3
 06:02     21:19    Daglengte: 15:17 Morgen
02:00
15°
 
2
08:00
14°
 
2
14:00
18°
5.9 mm
2
20:00
19°
4.8 mm
2
 06:04     21:17    Daglengte: 15:13 Dinsdag 03 Aug
02:00
15°
 
1
08:00
14°
 
1
14:00
20°
15.1 mm
2
20:00
20°
 
1
Locatie info
Region: Nordrhein-Westfalen
Latitude: 51.3339°N
Longitude: 6.5623°E
38 masl
Postcode: 47798
Temp/Neerslag /Baro Onweer/Dauwpunt
    Temp Baro 1h Neerslag Dauwpunt Wind UV Bewolking  
 06:01     21:20    Daglengte: 15:19 Vandaag
01:00
16°
1010.0 hPa
49%
12.9°
3
Windvlaag: 2.1 m/s
12%
02:00
15°
1009.8 hPa
18%
13.3°
3
Windvlaag: 2.6 m/s
12%
03:00
15°
1009.5 hPa
15%
13.3°
3
Windvlaag: 3 m/s
12%
04:00
15°
1009.1 hPa
14%
13.5°
3
Windvlaag: 2.6 m/s
14%
05:00
15°
1009.4 hPa
56%
13.4°
3
Windvlaag: 2.7 m/s
51%
06:00
14°
1009.3 hPa
16%
13.2°
3
Windvlaag: 4 m/s
53%
07:00
14°
1009.4 hPa
14%
12.9°
3
Windvlaag: 4.3 m/s
61%
08:00
15°
1009.4 hPa
14%
12.5°
4
Windvlaag: 4.4 m/s
54%
09:00
16°
1009.5 hPa
14%
12.2°
4
Windvlaag: 3.8 m/s
52%
10:00
17°
1009.8 hPa
14%
12.2°
4
Windvlaag: 3.5 m/s
19%
11:00
18°
1009.9 hPa
14%
11.9°
4
Windvlaag: 3.1 m/s
68%
12:00
19°
1009.8 hPa
15%
13.4°
4
Windvlaag: 3.3 m/s
66%
13:00
19°
1009.5 hPa
24%
14.5°
4
Windvlaag: 3.6 m/s
55%
14:00
20°
1009.3 hPa
34%
12.5°
4
Windvlaag: 0.1 m/s
66%
15:00
19°
1009.3 hPa
82%
14.7°
4
Windvlaag: -0.2 m/s
36%
16:00
20°
1009.1 hPa
77%
15.8°
4
Windvlaag: -0.1 m/s
61%
17:00
19°
1009.2 hPa
80%
15.8°
4
Windvlaag: 0.5 m/s
58%
18:00
19°
1009.4 hPa
82%
14.7°
4
Windvlaag: 0.9 m/s
45% warningclass
19:00
18°
1009.6 hPa 0.7 mm
82%
15.1°
4
Windvlaag: 1.2 m/s
54%
20:00
18°
1009.8 hPa
80%
14.4°
3
Windvlaag: 1.7 m/s
37%
21:00
17°
1010.2 hPa
82%
14.2°
3
Windvlaag: 2 m/s
17%
22:00
16°
1010.9 hPa
80%
15.0°
3
Windvlaag: 0.7 m/s
37%
23:00
16°
1011.2 hPa
74%
14.3°
3
Windvlaag: -0.9 m/s
37%
 06:02     21:19    Daglengte: 15:17 Morgen
00:00
15°
1011.4 hPa
69%
13.9°
2
Windvlaag: -1.1 m/s
54%
01:00
15°
1011.6 hPa
74%
13.7°
2
Windvlaag: -0.2 m/s
20%
02:00
15°
1011.6 hPa
74%
13.5°
2
Windvlaag: 0.2 m/s
54%
03:00
15°
1011.6 hPa
74%
13.2°
2
Windvlaag: 0.6 m/s
59%
04:00
14°
1011.8 hPa
82%
13.0°
2
Windvlaag: 0.6 m/s
56%
05:00
14°
1011.8 hPa
80%
13.0°
2
Windvlaag: 0.6 m/s
65%
06:00
14°
1012.2 hPa
82%
13.0°
2
Windvlaag: 0.6 m/s
58%
07:00
14°
1012.6 hPa
81%
13.0°
2
Windvlaag: 0.8 m/s
67%
08:00
14°
1013.0 hPa
72%
13.0°
2
Windvlaag: 0.2 m/s
56%
09:00
15°
1013.3 hPa 3.0 mm
69%
13.1°
2
Windvlaag: -0 m/s
25%
10:00
16°
1013.5 hPa 2.9 mm
68%
13.1°
2
Windvlaag: 0 m/s
55%
11:00
17°
1013.6 hPa
27%
12.4°
2
Windvlaag: 1.1 m/s
63%
12:00
17°
1013.8 hPa
25%
11.0°
2
Windvlaag: 1.6 m/s
83%
13:00
18°
1013.9 hPa
25%
10.9°
2
Windvlaag: 1.3 m/s
82%
14:00
18°
1014.0 hPa
28%
11.1°
2
Windvlaag: 1.4 m/s
70%
15:00
19°
1013.9 hPa
29%
11.3°
2
Windvlaag: 1.3 m/s
58%
16:00
19°
1013.6 hPa
64%
11.3°
3
Windvlaag: 3.7 m/s
41%
17:00
19°
1013.3 hPa 4.8 mm
82%
12.2°
2
Windvlaag: 3.9 m/s
33%
18:00
20°
1013.1 hPa
39%
12.3°
2
Windvlaag: 4.1 m/s
23%
19:00
19°
1013.1 hPa
77%
11.5°
2
Windvlaag: 3.9 m/s
49%
20:00
19°
1013.2 hPa
25%
10.1°
2
Windvlaag: 4.2 m/s
47%
21:00
18°
1013.5 hPa
21%
10.3°
2
Windvlaag: 3.2 m/s
26%
22:00
17°
1013.9 hPa
21%
10.4°
2
Windvlaag: 2.8 m/s
66%
23:00
16°
1014.1 hPa
21%
10.8°
1
Windvlaag: 2.1 m/s
65%
 06:04     21:17    Daglengte: 15:13 Dinsdag 03 Aug
00:00
15°
1014.3 hPa
21%
10.3°
1
Windvlaag: 1.8 m/s
68%
01:00
15°
1014.2 hPa
21%
9.8°
1
Windvlaag: 1.8 m/s
79%
02:00
15°
1014.1 hPa
21%
9.6°
1
Windvlaag: 1.4 m/s
92%
03:00
14°
1013.8 hPa
70%
9.3°
1
Windvlaag: 1.3 m/s
98%
04:00
14°
1013.8 hPa
72%
9.0°
1
Windvlaag: 1.2 m/s
82%
05:00
14°
1013.6 hPa
27%
9.5°
1
Windvlaag: 1.1 m/s
79%
06:00
14°
1013.5 hPa
22%
9.7°
1
Windvlaag: 0.5 m/s
94%
07:00
14°
1013.7 hPa
25%
9.9°
1
Windvlaag: 0.3 m/s
99%
08:00
14°
1013.9 hPa
26%
10.1°
1
Windvlaag: 0.6 m/s
99%
09:00
16°
1014.0 hPa
39%
10.0°
1
Windvlaag: -0.1 m/s
93%
10:00
17°
1014.0 hPa 4.9 mm
97%
9.8°
1
Windvlaag: -1.1 m/s
75%
11:00
18°
1014.0 hPa 5.2 mm
100%
9.7°
1
Windvlaag: -1.7 m/s
88%
12:00
18°
1013.7 hPa 5.1 mm
100%
9.2°
1
Windvlaag: -2 m/s
82%
13:00
19°
1013.3 hPa
100%
8.8°
2
Windvlaag: -2.5 m/s
83%
14:00
20°
1013.0 hPa
97%
8.6°
2
Windvlaag: -3.2 m/s
78%
15:00
21°
1012.7 hPa
92%
8.7°
1
Windvlaag: 3.6 m/s
59%
16:00
21°
1012.4 hPa
39%
7.9°
1
Windvlaag: 4.4 m/s
55%
17:00
21°
1012.1 hPa
38%
7.5°
1
Windvlaag: 4.4 m/s
57%
18:00
21°
1011.7 hPa
95%
7.4°
1
Windvlaag: 4.8 m/s
42%
19:00
21°
1011.8 hPa
97%
6.8°
2
Windvlaag: 4.4 m/s
3%
20:00
20°
1012.1 hPa
49%
6.6°
1
Windvlaag: 4.3 m/s
0%
21:00
19°
1012.5 hPa
85%
7.3°
1
Windvlaag: 4.7 m/s
0%
22:00
18°
1012.9 hPa
30%
10.0°
2
Windvlaag: 6.9 m/s
0%
23:00
17°
1013.0 hPa
32%
11.0°
1
Windvlaag: 7.1 m/s
43%
 06:05     21:15    Daglengte: 15:10 Woensdag 04 Aug
00:00
16°
1013.2 hPa
24%
11.0°
1
Windvlaag: 7.7 m/s
0%
Temp/Neerslag /Baro Onweer/Dauwpunt
    Temp Baro Neerslag Dauwpunt Wind Bewolking  
 06:01     21:20    Daglengte: 15:19 Vandaag
02:00
15°
1009.8 hPa   13.3°
3
12%
05:00
15°
1009.4 hPa   13.4°
3
51%
08:00
15°
1009.4 hPa   12.5°
4
54%
11:00
18°
1009.9 hPa   11.9°
4
68%
14:00
20°
1009.3 hPa   12.5°
4
66%
17:00
19°
1009.2 hPa   15.8°
4
58%
20:00
18°
1009.8 hPa 0.7 mm 14.4°
3
37%
23:00
16°
1011.2 hPa   14.3°
3
37%
 06:02     21:19    Daglengte: 15:17 Morgen
02:00
15°
1011.6 hPa   13.5°
2
54%
05:00
14°
1011.8 hPa   13.0°
2
65%
08:00
14°
1013.0 hPa   13.0°
2
56%
11:00
17°
1013.6 hPa 5.9 mm 12.4°
2
63%
14:00
18°
1014.0 hPa   11.1°
2
70%
17:00
19°
1013.3 hPa 4.8 mm 12.2°
2
33%
20:00
19°
1013.2 hPa   10.1°
2
47%
23:00
16°
1014.1 hPa   10.8°
1
65%
 06:04     21:17    Daglengte: 15:13 Dinsdag 03 Aug
02:00
15°
1014.1 hPa   9.6°
1
92%
05:00
14°
1013.6 hPa   9.5°
1
79%
08:00
14°
1013.9 hPa   10.1°
1
99%
11:00
18°
1014.0 hPa 10.1 mm 9.7°
1
88%
14:00
20°
1013.0 hPa 5.1 mm 8.6°
2
78%
17:00
21°
1012.1 hPa   7.5°
1
57%
20:00
20°
1012.1 hPa   6.6°
1
0%
23:00
17°
1013.0 hPa   11.0°
1
43%
 06:05     21:15    Daglengte: 15:10 Woensdag 04 Aug
02:00
16°
1012.9 hPa   11.1°
1
4%
05:00
14°
1012.0 hPa 21.3 mm 13.7°
1
1%
08:00
15°
1012.5 hPa 21.6 mm 13.2°
2
1%
11:00
16°
1013.1 hPa 22.0 mm 12.9°
3
1%
14:00
18°
1013.0 hPa 22.7 mm 12.4°
3
1%
17:00
18°
1013.3 hPa 23.4 mm 14.2°
3
1%
20:00
16°
1013.9 hPa 23.9 mm 13.7°
3
1%
23:00
14°
1014.6 hPa 24.0 mm 12.1°
2
1%
 06:07     21:14    Daglengte: 15:07 Donderdag 05 Aug
02:00
14°
1014.3 hPa 24.0 mm 12.7°
2
1%
05:00
13°
1013.3 hPa 24.0 mm 12.2°
2
1%
08:00
14°
1013.0 hPa 24.0 mm 12.6°
2
1%
11:00
17°
1011.6 hPa 24.0 mm 12.6°
3
1%
14:00
19°
1010.1 hPa 24.6 mm 12.6°
5
1%
17:00
19°
1008.6 hPa 24.6 mm 12.0°
4
1%
20:00
16°
1007.7 hPa 24.8 mm 13.5°
4
1%
23:00
15°
1006.2 hPa 25.2 mm 13.4°
5
1%
 06:08     21:12    Daglengte: 15:04 Vrijdag 06 Aug
02:00
14°
1005.0 hPa 26.0 mm 13.0°
5
1%
05:00
14°
1003.5 hPa 26.4 mm 13.4°
4
1%
08:00
15°
1003.3 hPa 27.3 mm 13.6°
4
1%
11:00
17°
1003.1 hPa 28.1 mm 14.0°
6
1%
14:00
15°
1003.1 hPa 32.7 mm 14.1°
6
1%
17:00
17°
1003.2 hPa 34.2 mm 14.8°
7
1%
20:00
17°
1003.8 hPa 35.6 mm 14.8°
6
1%
23:00
15°
1006.0 hPa 36.8 mm 13.9°
6
0%
 06:10     21:10    Daglengte: 15:00 Zaterdag 07 Aug
02:00
14°
1007.3 hPa 36.9 mm 12.8°
6
0%
05:00
13°
1008.2 hPa 36.9 mm 12.2°
5
1%
08:00
14°
1009.1 hPa 36.9 mm 12.7°
5
1%
11:00
16°
1010.0 hPa 36.9 mm 12.8°
5
1%
14:00
21°
1009.6 hPa 36.9 mm 11.9°
5
1%
17:00
22°
1009.6 hPa 36.9 mm 11.9°
4
1%
20:00
20°
1010.0 hPa 36.9 mm 13.5°
2
1%
23:00
18°
1009.8 hPa   12.9°
2
1%
 06:11     21:08    Daglengte: 14:57 Zondag 08 Aug
02:00
17°
1009.6 hPa 73.8 mm 13.4°
3
1%
08:00
15°
1009.2 hPa 77.5 mm 14.5°
2
1%
14:00
23°
1010.8 hPa 94.2 mm 12.8°
8
1%
20:00
20°
1011.8 hPa 94.4 mm 13.0°
7
0%
 06:13     21:06    Daglengte: 14:53 Maandag 09 Aug
02:00
16°
1014.8 hPa 95.0 mm 11.2°
7
0%
08:00
15°
1017.1 hPa 95.1 mm 11.8°
7
1%
14:00
17°
1019.7 hPa 95.3 mm 13.5°
7
1%
20:00
17°
1021.5 hPa 100.0 mm 13.7°
5
1%
 06:14     21:04    Daglengte: 14:50 Dinsdag 10 Aug
02:00
14°
1023.2 hPa 100.9 mm 12.3°
4
1%
08:00
14°
1023.3 hPa 100.9 mm 12.7°
4
1%
14:00
20°
1023.5 hPa 101.2 mm 12.9°
4
1%
20:00
21°
1019.5 hPa 0.4 mm 13.4°
3
49%
 06:16     21:03    Daglengte: 14:47 Woensdag 11 Aug
02:00
16°
1020.8 hPa 0.2 mm 12.2°
1
45%
08:00
15°
1020.8 hPa   11.9°
2
39%
14:00
22°
1020.0 hPa 0.3 mm 12.5°
2
47%
20:00
20°
1019.7 hPa 0.3 mm 13.0°
2
49%
 06:18     21:01    Daglengte: 14:43 Donderdag 12 Aug
02:00
16°
1020.6 hPa 0.4 mm 11.6°
0
33%
08:00
16°
1020.4 hPa 0.4 mm 12.0°
1
45%
14:00
23°
1019.6 hPa 0.2 mm 12.4°
1
59%
20:00
21°
1019.2 hPa 0.4 mm 13.7°
2
54%
 06:19     20:59    Daglengte: 14:40 Vrijdag 13 Aug
02:00
17°
1020.0 hPa 0.1 mm 12.6°
1
45%
08:00
17°
1019.9 hPa 0.2 mm 12.8°
1
51%
14:00
23°
1019.3 hPa 0.3 mm 13.4°
2
59%
20:00
21°
1018.9 hPa 0.4 mm 13.5°
2
56%
 06:21     20:57    Daglengte: 14:36 Zaterdag 14 Aug
02:00
17°
1019.6 hPa 0.3 mm 12.6°
1
51%
08:00
17°
1019.3 hPa 0.2 mm 12.9°
1
53%
14:00
23°
1018.6 hPa 0.3 mm 13.3°
2
66%
20:00
21°
1018.0 hPa 0.4 mm 13.6°
1
55%
 06:22     20:55    Daglengte: 14:33 Zondag 15 Aug
02:00
17°
1018.7 hPa 0.2 mm 12.8°
1
39%
08:00
16°
1018.2 hPa 0.3 mm 13.0°
2
51%
14:00
23°
1017.5 hPa 0.6 mm 14.0°
2
49%
20:00
21°
1017.2 hPa 0.9 mm 14.1°
2
55%
  CAPE Lifted Index Hail Supercell Tornado SRH 3km CL BTM PRES CL TOP PRES Swiss DWD icon SMHI TS
 06:01     21:20    Daglengte: 15:19 Vandaag
01:00 0 J/kg 0.3 K 0 % 0 % 0 % 0 m²/s² 0 0 1.56 2
02:00 0 J/kg 0.5 K 0 % 0 % 0 % 0 m²/s² 0 0 1.67 2
03:00 5 J/kg 0.1 K 0 % 0 % 0 % 0 m²/s² 0 0 1.33 2
04:00 0 J/kg -0.2 K 0 % 0 % 0 % 0 m²/s² 0 0 0.91 2
05:00 5 J/kg 0.0 K 0 % 0 % 0 % 0 m²/s² 0 0 1.26 3
06:00 0 J/kg 0.1 K 0 % 0 % 0 % 0 m²/s² 0 0 1.54 2
07:00 0 J/kg 0.2 K 0 % 0 % 0 % 0 m²/s² 0 0 1.73 2
08:00 0 J/kg 0.9 K 0 % 0 % 0 % 0 m²/s² 0 0 2.49 2
09:00 0 J/kg 1.3 K 0 % 0 % 0 % 0 m²/s² 0 0 2.83 2
10:00 0 J/kg 1.6 K 0 % 0 % 0 % 0 m²/s² 0 0 3.25 2
11:00 29 J/kg 0.8 K 0 % 0 % 0 % 0 m²/s² 0 0 2.24 3
12:00 114 J/kg 0.0 K 0 % 0 % 0 % 0 m²/s² 0 0 1.41 3
13:00 252 J/kg -0.9 K 0 % 0 % 0 % 0 m²/s² 0 0 0.54 3
14:00 383 J/kg -1.7 K 0 % 0 % 0 % 0 m²/s² 0 0 0.07 3
15:00 460 J/kg -2.0 K 0 % 0 % 0 % 0 m²/s² 0 0 -0.41 3
16:00 403 J/kg -1.6 K 0 % 0 % 0 % 0 m²/s² 0 0 0.23 3
17:00 517 J/kg -2.3 K 0 % 0 % 0 % 0 m²/s² 0 0 -0.53 3
18:00 324 J/kg -1.4 K 0 % 0 % 0 % 0 m²/s² 0 0 0.13 95
19:00 278 J/kg -1.3 K 0 % 0 % 0 % 0 m²/s² 0 0 0.29 80
20:00 184 J/kg -1.0 K 0 % 0 % 0 % 0 m²/s² 0 0 -0.22 3
21:00 250 J/kg -1.4 K 0 % 0 % 0 % 0 m²/s² 0 0 -1.1 3
22:00 472 J/kg -1.3 K 0 % 0 % 0 % 0 m²/s² 0 0 -1.21 3
23:00 277 J/kg -0.6 K 0 % 0 % 0 % 0 m²/s² 0 0 0.03 3
 06:02     21:19    Daglengte: 15:17 Morgen
00:00 227 J/kg -0.6 K 0 % 0 % 0 % 0 m²/s² 0 0 0.33 3
01:00 255 J/kg -0.6 K 0 % 0 % 0 % 0 m²/s² 0 0 0.36 3
02:00 27 J/kg 1.1 K 0 % 0 % 0 % 0 m²/s² 0 0 2.06 80
03:00 0 J/kg 2.1 K 0 % 0 % 0 % 0 m²/s² 0 0 3.63 80
04:00 0 J/kg 2.5 K 0 % 0 % 0 % 0 m²/s² 0 0 3.94 3
05:00 0 J/kg 3.1 K 0 % 0 % 0 % 0 m²/s² 0 0 6.58 3
06:00 0 J/kg 3.0 K 0 % 0 % 0 % 0 m²/s² 0 0 5.64 3
07:00 0 J/kg 3.2 K 0 % 0 % 0 % 0 m²/s² 0 0 5.69 3
08:00 0 J/kg 3.5 K 0 % 0 % 0 % 0 m²/s² 0 0 4.7 3
09:00 0 J/kg 3.7 K 0 % 0 % 0 % 0 m²/s² 0 0 4.9 80
10:00 1 J/kg 3.5 K 0 % 0 % 0 % 0 m²/s² 0 0 3.92 3
11:00 13 J/kg 2.6 K 0 % 0 % 0 % 0 m²/s² 0 0 3.29 3
12:00 18 J/kg 2.4 K 0 % 0 % 0 % 0 m²/s² 0 0 2.91 3
13:00 48 J/kg 1.7 K 0 % 0 % 0 % 0 m²/s² 0 0 3.29 3
14:00 107 J/kg 1.1 K 0 % 0 % 0 % 0 m²/s² 0 0 2.36 3
15:00 204 J/kg 0.3 K 0 % 0 % 0 % 0 m²/s² 0 0 2.52 3
16:00 218 J/kg 0.0 K 0 % 0 % 0 % 0 m²/s² 0 0 2.49 3
17:00 206 J/kg -0.1 K 0 % 0 % 0 % 0 m²/s² 0 0 2.48 2
18:00 221 J/kg -0.5 K 0 % 0 % 0 % 0 m²/s² 0 0 -0.08 2
19:00 194 J/kg -0.4 K 0 % 0 % 0 % 0 m²/s² 0 0 1.25 2
20:00 109 J/kg 0.4 K 0 % 0 % 0 % 0 m²/s² 0 0 2.11 2
21:00 61 J/kg 0.8 K 0 % 0 % 0 % 0 m²/s² 0 0 2.96 2
22:00 19 J/kg 1.2 K 0 % 0 % 0 % 0 m²/s² 0 0 2.37 2
23:00 0 J/kg 1.5 K 0 % 0 % 0 % 0 m²/s² 0 0 2.58 3
 06:04     21:17    Daglengte: 15:13 Dinsdag 03 Aug
00:00 0 J/kg 1.2 K 0 % 0 % 0 % 0 m²/s² 0 0 2.64 3
01:00 0 J/kg 1.2 K 0 % 0 % 0 % 0 m²/s² 0 0 3.42 3
02:00 0 J/kg 1.1 K 0 % 0 % 0 % 0 m²/s² 0 0 3.74 3
03:00 0 J/kg 0.6 K 0 % 0 % 0 % 0 m²/s² 0 0 1.08 3
04:00 0 J/kg 0.7 K 0 % 0 % 0 % 0 m²/s² 0 0 1.12 3
05:00 0 J/kg 0.4 K 0 % 0 % 0 % 0 m²/s² 0 0 0.91 45
06:00 0 J/kg 0.4 K 0 % 0 % 0 % 0 m²/s² 0 0 1.03 45
07:00 0 J/kg 0.4 K 0 % 0 % 0 % 0 m²/s² 0 0 1.57 3
08:00 0 J/kg 0.9 K 0 % 0 % 0 % 0 m²/s² 0 0 2.37 3
09:00 0 J/kg 2.1 K 0 % 0 % 0 % 0 m²/s² 0 0 2.97 3
10:00 0 J/kg 3.1 K 0 % 0 % 0 % 0 m²/s² 0 0 3.91 3
11:00 1 J/kg 2.8 K 0 % 0 % 0 % 0 m²/s² 0 0 3.31 80
12:00 0 J/kg 2.4 K 0 % 0 % 0 % 0 m²/s² 0 0 3.03 80
13:00 1 J/kg 2.3 K 0 % 0 % 0 % 0 m²/s² 0 0 3.23 3
14:00 0 J/kg 2.0 K 0 % 0 % 0 % 0 m²/s² 0 0 3.38 3
15:00 11 J/kg 1.8 K 0 % 0 % 0 % 0 m²/s² 0 0 3.12 3
16:00 1 J/kg 2.5 K 0 % 0 % 0 % 0 m²/s² 0 0 3.73 3
17:00 0 J/kg 3.1 K 0 % 0 % 0 % 0 m²/s² 0 0 4.21 3
18:00 0 J/kg 3.5 K 0 % 0 % 0 % 0 m²/s² 0 0 4.88 2
19:00 0 J/kg 3.7 K 0 % 0 % 0 % 0 m²/s² 0 0 5.2 3
20:00 0 J/kg 4.1 K 0 % 0 % 0 % 0 m²/s² 0 0 5.6 1
21:00 0 J/kg 4.3 K 0 % 0 % 0 % 0 m²/s² 0 0 5.86 2
22:00 0 J/kg 2.9 K 0 % 0 % 0 % 0 m²/s² 0 0 4.46 2
23:00 0 J/kg 2.9 K 0 % 0 % 0 % 0 m²/s² 0 0 4.46 3
 06:05     21:15    Daglengte: 15:10 Woensdag 04 Aug
00:00 0 J/kg 3.4 K 0 % 0 % 0 % 0 m²/s² 0 0 4.96 2
Temp Baro Wind Neerslag
  EWN Forecast EWN WRFDA DWD ICON FMI HIRLAM MET Norway GFS
 06:01     21:20    Daglengte: 15:19 Vandaag
02:00 15.4° 1009.8 hPa 2.5 m/s 0.0 mm 14.3° 1009.0 hPa 2.7 m/s 1.1 mm 15.0° 1010.3 hPa 2.4 m/s -2.0 mm 15.6° 1009.2 hPa 2.7 m/s 0.0 mm 13.6° 1010.0 hPa 2.6 m/s
05:00 15.1° 1009.4 hPa 2.9 m/s 0.0 mm 13.1° 1008.0 hPa 2.4 m/s 1.7 mm 14.5° 1009.5 hPa 2.5 m/s 0.0 mm 15.4° 1009.5 hPa 3.0 m/s 0.0 mm 12.6° 1009.4 hPa 2.8 m/s
08:00 14.9° 1009.4 hPa 3.6 m/s 0.0 mm 14.4° 1007.8 hPa 3.1 m/s 1.7 mm 14.7° 1009.8 hPa 3.6 m/s 0.0 mm 14.9° 1008.6 hPa 3.0 m/s 0.0 mm 13.7° 1010.0 hPa 3.8 m/s
11:00 18.1° 1009.9 hPa 4.3 m/s 0.0 mm 19.0° 1008.3 hPa 3.3 m/s 1.7 mm 17.5° 1010.6 hPa 4.8 m/s 0.0 mm 19.2° 1008.7 hPa 3.4 m/s 0.0 mm 18.5° 1010.0 hPa 4.5 m/s
14:00 19.9° 1009.3 hPa 4.3 m/s 0.0 mm 22.0° 1007.4 hPa 4.7 m/s 1.7 mm 19.3° 1010.2 hPa 4.7 m/s 0.0 mm 21.2° 1008.1 hPa 4.2 m/s 0.0 mm 20.9° 1009.3 hPa 5.2 m/s
17:00 19.2° 1009.2 hPa 4.5 m/s 0.0 mm 21.9° 1007.2 hPa 6.9 m/s 1.7 mm 20.2° 1009.6 hPa 4.5 m/s 0.1 mm 18.9° 1008.0 hPa 3.2 m/s 0.0 mm 19.9° 1009.7 hPa 4.9 m/s
20:00 17.8° 1009.8 hPa 3.3 m/s 0.7 mm 19.5° 1007.8 hPa 4.6 m/s 1.8 mm 17.6° 1010.3 hPa 3.1 m/s 2.2 mm 18.1° 1008.5 hPa 2.9 m/s 0.0 mm 17.7° 1009.8 hPa 3.6 m/s
23:00 15.6° 1011.2 hPa 3.0 m/s 0.0 mm 16.4° 1009.3 hPa 3.6 m/s 23.7 mm 15.5° 1011.5 hPa 1.8 m/s 0.3 mm 15.8° 1010.5 hPa 3.0 m/s 0.0 mm 14.4° 1011.6 hPa 2.3 m/s
 06:02     21:19    Daglengte: 15:17 Morgen
02:00 14.8° 1011.6 hPa 2.2 m/s 0.0 mm 15.5° 1009.5 hPa 3.1 m/s 41.6 mm 14.7° 1011.9 hPa 1.9 m/s 0.4 mm 14.9° 1010.9 hPa 2.1 m/s 0.0 mm 13.1° 1012.5 hPa 2.3 m/s
05:00 14.2° 1011.8 hPa 1.9 m/s 0.0 mm 12.8° 1010.3 hPa 1.4 m/s 42.0 mm 14.4° 1012.0 hPa 2.0 m/s 0.5 mm 14.6° 1011.3 hPa 2.0 m/s 0.0 mm 12.3° 1013.2 hPa 1.5 m/s
08:00 14.5° 1013.0 hPa 1.9 m/s 0.0 mm 14.1° 1011.7 hPa 1.1 m/s 42.0 mm 14.8° 1013.1 hPa 2.0 m/s 0.4 mm 14.6° 1012.7 hPa 2.1 m/s 0.0 mm 13.6° 1014.3 hPa 1.6 m/s
11:00 16.7° 1013.6 hPa 1.8 m/s 5.9 mm 16.8° 1012.1 hPa 1.4 m/s 42.1 mm 17.5° 1013.7 hPa 1.7 m/s 0.4 mm 16.8° 1013.7 hPa 3.1 m/s 0.0 mm 16.2° 1014.8 hPa 1.9 m/s
14:00 18.0° 1014.0 hPa 2.2 m/s 0.0 mm 18.8° 1012.0 hPa 1.7 m/s 42.3 mm 18.6° 1013.7 hPa 2.0 m/s 0.0 mm 18.3° 1014.3 hPa 3.7 m/s 0.0 mm 20.1° 1014.0 hPa 1.8 m/s
17:00 19.0° 1013.3 hPa 2.1 m/s 4.8 mm 20.2° 1011.3 hPa 3.2 m/s 42.5 mm 19.2° 1013.5 hPa 1.8 m/s 0.2 mm 20.6° 1013.4 hPa 2.2 m/s
20:00 18.8° 1013.2 hPa 2.3 m/s 0.0 mm 20.4° 1011.1 hPa 2.3 m/s 42.5 mm 18.8° 1013.4 hPa 2.6 m/s 0.0 mm 19.6° 1013.2 hPa 1.6 m/s
23:00 16.0° 1014.1 hPa 1.5 m/s 0.0 mm 16.8° 1012.0 hPa 1.8 m/s 42.5 mm 16.2° 1014.3 hPa 1.5 m/s 0.0 mm 15.8° 1013.9 hPa 1.5 m/s
 06:04     21:17    Daglengte: 15:13 Dinsdag 03 Aug
02:00 14.5° 1014.1 hPa 1.0 m/s 0.0 mm 14.8° 1012.3 hPa 2.6 m/s 42.5 mm 15.3° 1014.3 hPa 0.7 m/s 0.0 mm 15.1° 1013.4 hPa 1.1 m/s
05:00 14.0° 1013.6 hPa 0.9 m/s 0.0 mm 14.5° 1011.6 hPa 2.6 m/s 42.7 mm 14.4° 1014.0 hPa 0.7 m/s 0.0 mm 14.9° 1012.4 hPa 1.6 m/s
08:00 14.4° 1013.9 hPa 1.3 m/s 0.0 mm 14.8° 1011.9 hPa 2.5 m/s 43.2 mm 14.9° 1014.3 hPa 1.2 m/s 0.0 mm 14.8° 1012.7 hPa 1.4 m/s
11:00 17.7° 1014.0 hPa 1.4 m/s 10.1 mm 18.8° 1011.8 hPa 2.8 m/s 43.3 mm 17.7° 1014.5 hPa 0.4 m/s 0.6 mm 17.8° 1012.5 hPa 2.0 m/s
14:00 20.0° 1013.0 hPa 2.2 m/s 5.1 mm 21.4° 1010.1 hPa 3.4 m/s 43.3 mm 19.8° 1013.7 hPa 0.4 m/s 0.5 mm 18.9° 1011.6 hPa 2.8 m/s
17:00 21.3° 1012.1 hPa 1.1 m/s 0.0 mm 22.4° 1010.2 hPa 4.4 m/s 43.3 mm 21.0° 1012.6 hPa 0.2 m/s 0.0 mm 17.8° 1011.7 hPa 2.9 m/s
20:00 20.0° 1012.1 hPa 1.1 m/s 0.0 mm 21.2° 1010.4 hPa 4.3 m/s 43.3 mm 19.6° 1012.5 hPa 0.4 m/s 0.0 mm 17.2° 1011.7 hPa 1.0 m/s
23:00 17.1° 1013.0 hPa 1.5 m/s 0.0 mm 17.6° 1011.9 hPa 4.3 m/s 43.3 mm 17.0° 1013.3 hPa 0.8 m/s 0.0 mm 15.2° 1012.7 hPa 1.9 m/s
 06:05     21:15    Daglengte: 15:10 Woensdag 04 Aug
02:00 15.8° 1012.9 hPa 1.2 m/s 0.0 mm 16.1° 1012.5 hPa 3.1 m/s 43.3 mm 15.8° 1013.1 hPa 0.7 m/s 0.0 mm 14.2° 1012.8 hPa 1.8 m/s
05:00 14.2° 1012.0 hPa 1.4 m/s 21.3 mm 14.2° 1012.0 hPa 1.4 m/s 21.3 mm
08:00 14.5° 1012.5 hPa 2.4 m/s 21.6 mm 14.5° 1012.5 hPa 2.4 m/s 21.6 mm
11:00 16.1° 1013.1 hPa 2.9 m/s 22.0 mm 16.1° 1013.1 hPa 2.9 m/s 22.0 mm
14:00 18.4° 1013.0 hPa 2.9 m/s 22.7 mm 18.4° 1013.0 hPa 2.9 m/s 22.7 mm
17:00 17.9° 1013.3 hPa 3.1 m/s 23.4 mm 17.9° 1013.3 hPa 3.1 m/s 23.4 mm
20:00 16.0° 1013.9 hPa 2.7 m/s 23.9 mm 16.0° 1013.9 hPa 2.7 m/s 23.9 mm
23:00 14.1° 1014.6 hPa 2.1 m/s 24.0 mm 14.1° 1014.6 hPa 2.1 m/s 24.0 mm
 06:07     21:14    Daglengte: 15:07 Donderdag 05 Aug
02:00 13.8° 1014.3 hPa 2.1 m/s 24.0 mm 13.8° 1014.3 hPa 2.1 m/s 24.0 mm
05:00 13.0° 1013.3 hPa 2.2 m/s 24.0 mm 13.0° 1013.3 hPa 2.2 m/s 24.0 mm
08:00 13.9° 1013.0 hPa 2.3 m/s 24.0 mm 13.9° 1013.0 hPa 2.3 m/s 24.0 mm
11:00 16.8° 1011.6 hPa 3.1 m/s 24.0 mm 16.8° 1011.6 hPa 3.1 m/s 24.0 mm
14:00 19.0° 1010.1 hPa 4.8 m/s 24.6 mm 19.0° 1010.1 hPa 4.8 m/s 24.6 mm
17:00 19.1° 1008.6 hPa 3.7 m/s 24.6 mm 19.1° 1008.6 hPa 3.7 m/s 24.6 mm
20:00 15.7° 1007.7 hPa 4.3 m/s 24.8 mm 15.7° 1007.7 hPa 4.3 m/s 24.8 mm
23:00 14.7° 1006.2 hPa 4.7 m/s 25.2 mm 14.7° 1006.2 hPa 4.7 m/s 25.2 mm
 06:08     21:12    Daglengte: 15:04 Vrijdag 06 Aug
02:00 14.5° 1005.0 hPa 4.5 m/s 26.0 mm 14.5° 1005.0 hPa 4.5 m/s 26.0 mm
05:00 14.2° 1003.5 hPa 3.9 m/s 26.4 mm 14.2° 1003.4 hPa 3.9 m/s 26.4 mm
08:00 14.9° 1003.3 hPa 4.0 m/s 27.3 mm 14.9° 1003.3 hPa 4.0 m/s 27.3 mm
11:00 16.7° 1003.1 hPa 6.2 m/s 28.1 mm 16.7° 1003.1 hPa 6.2 m/s 28.1 mm
14:00 15.1° 1003.1 hPa 5.9 m/s 32.7 mm 15.1° 1003.1 hPa 5.9 m/s 32.7 mm
17:00 17.2° 1003.2 hPa 7.0 m/s 34.2 mm 17.2° 1003.2 hPa 7.0 m/s 34.2 mm
20:00 16.9° 1003.8 hPa 6.3 m/s 35.6 mm 16.9° 1003.8 hPa 6.3 m/s 35.6 mm
23:00 15.4° 1006.0 hPa 6.3 m/s 36.8 mm 15.4° 1006.0 hPa 6.3 m/s 36.8 mm
 06:10     21:10    Daglengte: 15:00 Zaterdag 07 Aug
02:00 14.1° 1007.3 hPa 6.0 m/s 36.9 mm 14.1° 1007.3 hPa 6.0 m/s 36.9 mm
05:00 13.2° 1008.2 hPa 5.3 m/s 36.9 mm 13.2° 1008.2 hPa 5.3 m/s 36.9 mm
08:00 14.0° 1009.1 hPa 4.8 m/s 36.9 mm 14.0° 1009.1 hPa 4.8 m/s 36.9 mm
11:00 16.2° 1010.0 hPa 4.7 m/s 36.9 mm 16.2° 1010.0 hPa 4.7 m/s 36.9 mm
14:00 21.2° 1009.6 hPa 5.1 m/s 36.9 mm 21.2° 1009.6 hPa 5.1 m/s 36.9 mm
17:00 21.5° 1009.6 hPa 3.6 m/s 36.9 mm 21.5° 1009.6 hPa 3.6 m/s 36.9 mm
20:00 20.0° 1010.0 hPa 1.9 m/s 36.9 mm 20.0° 1010.0 hPa 1.9 m/s 36.9 mm
23:00 17.8° 1009.8 hPa 2.2 m/s 36.9 mm 17.8° 1009.8 hPa 2.2 m/s 36.9 mm
 06:11     21:08    Daglengte: 14:57 Zondag 08 Aug
02:00 17.0° 1009.6 hPa 2.7 m/s 36.9 mm 17.0° 1009.6 hPa 2.7 m/s 36.9 mm
08:00 15.3° 1009.2 hPa 2.3 m/s 40.6 mm 15.3° 1009.2 hPa 2.3 m/s 40.6 mm
14:00 22.5° 1010.8 hPa 7.9 m/s 47.1 mm 22.5° 1010.8 hPa 7.9 m/s 47.1 mm
20:00 19.9° 1011.8 hPa 7.2 m/s 47.2 mm 19.9° 1011.8 hPa 7.2 m/s 47.2 mm
 06:13     21:06    Daglengte: 14:53 Maandag 09 Aug
02:00 15.6° 1014.8 hPa 7.2 m/s 47.5 mm 15.6° 1014.8 hPa 7.2 m/s 47.5 mm
08:00 15.4° 1017.1 hPa 7.0 m/s 47.5 mm 15.4° 1017.1 hPa 7.0 m/s 47.5 mm
14:00 17.4° 1019.7 hPa 7.0 m/s 47.8 mm 17.4° 1019.7 hPa 7.0 m/s 47.8 mm
20:00 17.1° 1021.5 hPa 4.6 m/s 50.4 mm 17.1° 1021.5 hPa 4.6 m/s 50.4 mm
 06:14     21:04    Daglengte: 14:50 Dinsdag 10 Aug
02:00 14.1° 1023.2 hPa 4.3 m/s 50.5 mm 14.1° 1023.2 hPa 4.3 m/s 50.5 mm
08:00 14.3° 1023.3 hPa 3.9 m/s 50.5 mm 14.3° 1023.3 hPa 3.9 m/s 50.5 mm
14:00 20.0° 1023.5 hPa 4.3 m/s 50.7 mm 20.0° 1023.5 hPa 4.3 m/s 50.7 mm
20:00 20.6° 1019.5 hPa 2.5 m/s 0.4 mm
 06:16     21:03    Daglengte: 14:47 Woensdag 11 Aug
02:00 15.6° 1020.8 hPa 1.5 m/s 0.2 mm
08:00 15.3° 1020.8 hPa 1.6 m/s 0.0 mm
14:00 21.9° 1020.0 hPa 2.1 m/s 0.3 mm
20:00 20.4° 1019.7 hPa 1.9 m/s 0.3 mm
 06:18     21:01    Daglengte: 14:43 Donderdag 12 Aug
02:00 15.8° 1020.6 hPa 0.3 m/s 0.4 mm
08:00 15.7° 1020.4 hPa 0.6 m/s 0.4 mm
14:00 22.7° 1019.6 hPa 1.0 m/s 0.2 mm
20:00 21.2° 1019.2 hPa 1.7 m/s 0.4 mm
 06:19     20:59    Daglengte: 14:40 Vrijdag 13 Aug
02:00 16.8° 1020.0 hPa 0.5 m/s 0.1 mm
08:00 16.8° 1019.9 hPa 1.1 m/s 0.2 mm
14:00 23.4° 1019.3 hPa 1.9 m/s 0.3 mm
20:00 21.4° 1018.9 hPa 1.8 m/s 0.4 mm
 06:21     20:57    Daglengte: 14:36 Zaterdag 14 Aug
02:00 17.0° 1019.6 hPa 0.8 m/s 0.3 mm
08:00 16.7° 1019.3 hPa 1.3 m/s 0.2 mm
14:00 22.7° 1018.6 hPa 1.6 m/s 0.3 mm
20:00 21.3° 1018.0 hPa 1.4 m/s 0.4 mm
 06:22     20:55    Daglengte: 14:33 Zondag 15 Aug
02:00 16.8° 1018.7 hPa 0.8 m/s 0.2 mm
08:00 16.4° 1018.2 hPa 1.6 m/s 0.3 mm
14:00 22.6° 1017.5 hPa 2.5 m/s 0.6 mm
20:00 20.9° 1017.2 hPa 2.1 m/s 0.9 mm
FMI Hirlam - 7.5 km EWN WRFDA - 12 km DWD ICON - 7 km GFS - 25 km Basiskaart






























































Updatetijd (Europe/Amsterdam) Resolutie Lengte Stap
FMI Hirlam 19:00, 01:00, 07:00, 13:00 7.5 km 49h 1h
EWN WRFDA 22:15, 04:15, 10:15, 16:15 12 km 73h 1h
DWD ICON 23:45, 05:45, 11:45, 17:45 7 km 75h 1h
GFS 20:15, 02:15, 08:15, 14:15 25 km 237h 3h
30+ mm
25-30 mm
20-25 mm
15-20 mm
10-15 mm
6-10 mm
4-6 mm
2-4 mm
1-2 mm
0.5-1 mm
0.2-0.5 mm
0.1-0.2 mm
30+ mm
25-30 mm
20-25 mm
15-20 mm
10-15 mm
6-10 mm
4-6 mm
2-4 mm
1-2 mm
0.5-1 mm
0.2-0.5 mm
0.1-0.2 mm
Sneeuwval
Natte sneeuw
Hagel
Vorst
30+ mm
25-30 mm
20-25 mm
15-20 mm
10-15 mm
6-10 mm
4-6 mm
2-4 mm
1-2 mm
0.5-1 mm
0.2-0.5 mm
0.1-0.2 mm
Sneeuwval
Natte sneeuw
Hagel
Vorst
Onweer
50 mm
40 mm
30 mm
26 mm
22 mm
18 mm
14 mm
10 mm
9 mm
8 mm
7 mm
6 mm
5 mm
4.5 mm
4 mm
3.5 mm
3 mm
2.5 mm
2 mm
1.5 mm
1 mm
0.8 mm
0.6 mm
0.4 mm
0.2 mm
0.05 mm
35°
30°
25°
20°
15°
10°
-5°
-10°
-15°
-20°
-25°
-30°
-35°
33> m/s
29 m/s
25 m/s
21 m/s
17 m/s
14 m/s
11 m/s
8 m/s
5 m/s
3 m/s
0 m/s
2600 J/kg
2400 J/kg
2200 J/kg
2000 J/kg
1800 J/kg
1600 J/kg
1400 J/kg
1200 J/kg
1000 J/kg
800 J/kg
600 J/kg
400 J/kg
200 J/kg
70 dBZ
65 dBZ
60 dBZ
55 dBZ
50 dBZ
45 dBZ
40 dBZ
35 dBZ
30 dBZ
25 dBZ
20 dBZ
15 dBZ
10 dBZ
5 dBZ
-1 K
-2 K
-3 K
-4 K
-5 K
-6 K
-7 K
-8 K
-9 K
950 m²/s²
900 m²/s²
850 m²/s²
800 m²/s²
750 m²/s²
700 m²/s²
650 m²/s²
600 m²/s²
550 m²/s²
500 m²/s²
450 m²/s²
400 m²/s²
350 m²/s²
300 m²/s²
250 m²/s²
200 m²/s²
150 m²/s²
100 m²/s²
46 m/s
44 m/s
42 m/s
40 m/s
38 m/s
36 m/s
34 m/s
32 m/s
30 m/s
28 m/s
26 m/s
24 m/s
22 m/s
20 m/s
16 m/s
12 m/s
8 m/s
4 m/s
30 m/s
28 m/s
26 m/s
24 m/s
22 m/s
20 m/s
18 m/s
16 m/s
14 m/s
12 m/s
10 m/s
8 m/s
6 m/s
4 m/s
2 m/s
3.0
2.8
2.6
2.4
2.2
2.0
1.8
1.6
1.4
1.2
1.0
0.8
0.6
0.4
0.2
15
14
13
12
11
10
9
8
7
6
5
4
3
2
1
90%
80%
70%
60%
50%
40%
30%
20%
10%
42
40
38
36
34
32
30
28
26
24
22
20
18
16
14
12
90+ cm
80-90 cm
70-80 cm
60-70 cm
50-60 cm
40-50 cm
30-40 cm
20-30 cm
10-20 cm
1-10 cm
Sneeuwval
Natte sneeuw
Regen
>120 mm
115 mm
110 mm
105 mm
100 mm
95 mm
90 mm
85 mm
80 mm
75 mm
70 mm
65 mm
60 mm
55 mm
50 mm
45 mm
45 mm
40 mm
35 mm
30 mm
25 mm
20 mm
15 mm
10 mm
5 mm
0.1 mm
960 hPa
880 hPa
800 hPa
720 hPa
640 hPa
560 hPa
584 gpdm
568 gpdm
552 gpdm
536 gpdm
520 gpdm
504 gpdm
488 gpdm
Extreem zwaar Noodweer Kans op onweer
15% 15% 5% 50% 15%

Dag




Kaart






35°
30°
25°
20°